THOR ABLESTAR DEB, 131

Orbit data source: Space-Track

THOR ABLESTAR DEB, 131 is space debris in LEO originally from a launch on Thu, 29 Jun 1961 UTC launched from the Air Force Eastern Test Range (AFETR). Debris objects in space refer to the collection of defunct objects orbiting the Earth. Examples of debris include non-operational satellites, rocket bodies, and fragments generated from explosions, collisions, or faulty payload assembly.

Loading next visibility...
Identifier
131, 1961-015R
Orbit
LEO
Last TLE update
8 hours ago
Origin
Manufacturer
Unknown
Mission
Spacecraft
Bus & Motor
Unknown
Mass
Unknown
Launch date (UTC)
1961-06-29 (64 years ago)
Launch vehicle
Unknown
Launch site
Air Force Eastern Test Range (AFETR)
Object type
Payload
Rocket body
Debris
Shape & HBR
Unknown
Radar Cross Section
Medium (>0.1 m² and <1 m²)

Expand to show TLE details & history

TLE from 8 hours ago
0 THOR ABLESTAR DEB
1 00131U 61015R   25132.96091088  .00000141  00000-0  14127-3 0  9996
2 00131  66.7368  21.3550 0082573 343.6172  16.2245 14.01598086247375
Epoch: 2025-05-12T23:03Z
Definitive object data (Epoch: 2025-05-12T23:03:42.7Z)
Latitude
0.00003°
Longitude
164.4606°
Altitude
832.77 km
Speed
7.466 km/s
True Right ascension
01h 25m 25s
True Declination
0° 00' 00"
Sunlit
Object was in daylight at TLE epoch
Visualization TLE readout
Latitude
-61.6373°
Longitude
111.22101°
Altitude
877.576 km
Speed
7.43 km/s
Apparent Right ascension
01h 24m 30s
Apparent Declination
-59° 34' 42"
Sunlit
Object is in daylight
Visualization observer readout
Local Sidereal Time
15:41:38
Azimuth
144.023° SSE
Elevation
-60.952°
Doppler factor
1
Orbital elements
Apogee altitude
946.646 km
Perigee altitude
826.671 km
Semi-major axis
7,264.796 km
Eccentricity
0.0082573
Inclination
66.7368°
RAAN
21.355°
Arg. of periapsis
343.6172°
True anomaly
16.49152°
Mean anomaly
16.2245°
Eccentric anomaly
16.35774°
Mean motion
3.50516 °/min
BSTAR
0.00014127
Orbital period
102.71 mins
Loading maneuver chart data...
Loading SW <> Apogee altitude chart data...

THOR ABLESTAR DEB Visibility forecast

Observer location: undefined°, undefined°

Span
Click to sort rows by Start time (UTC) header in descending order
Start Az.
Max El. time (UTC)
Max El. Az.
Max El.
End time (UTC)
End Az.
11 mins2025-05-13 18:00:54.374Z201.589° SSW2025-05-13 18:05:54.374Z154.142° SSE43.963°2025-05-13 18:11:54.374Z31.922° NE
6 mins2025-05-13 19:49:54.374Z284.373° WNW2025-05-13 19:52:54.374Z322.059° NNW18.222°2025-05-13 19:55:54.374Z356.053° N
4 mins2025-05-14 01:17:54.374Z23.887° NE2025-05-14 01:18:54.374Z34.767° NE14.457°2025-05-14 01:21:54.374Z66.206° ENE
10 mins2025-05-14 03:01:54.374Z338.775° N2025-05-14 03:05:54.374Z51.639° ENE43.338°2025-05-14 03:11:54.374Z143.082° SSE
6 mins2025-05-14 04:48:54.374Z280.144° WNW2025-05-14 04:50:54.374Z256.995° W17.588°2025-05-14 04:54:54.374Z215.547° SW
|